Wind_Speed
17 19 20 22 23 23 24 25 28 34 34 33 34 33 31 31 31 31 32 33 33 34 36 36 36 37 38 38 39 40 41 42 43 45 46 47 47 48 48 48 47 46 45 44
18 19 19 21 22 23 25 25 26 29 28 29 30 30 28 27 28 28 29 31 32 32 33 34 34 35 35 36 37 38 39 40 41 43 44 45 46 47 48 48 47 46 46 44
17 18 18 21 22 22 22 22 23 25 27 26 26 26 25 23 24 25 26 28 29 29 30 30 30 31 31 31 32 33 34 35 37 38 40 42 43 45 46 47 47 46 46 44
15 17 18 19 20 19 21 21 21 22 23 23 22 24 24 23 23 23 24 25 25 25 25 25 25 24 25 26 28 29 30 31 32 33 34 36 39 40 41 43 44 44 44 43
13 14 15 17 18 19 19 20 20 19 18 18 19 22 24 24 24 24 24 23 23 22 20 19 19 20 21 21 23 23 24 24 25 26 28 29 32 34 36 38 39 39 40 40
11 12 14 15 16 16 17 17 16 15 15 17 18 21 24 22 23 22 21 21 20 19 17 17 17 17 18 19 19 19 19 19 20 21 22 24 25 27 29 32 34 35 36 36
7 8 11 12 13 14 15 15 15 14 16 18 19 19 20 20 20 19 19 18 18 17 16 16 17 16 17 17 17 17 16 16 17 18 18 18 20 21 22 25 27 28 30 31
7 8 9 11 13 14 14 14 13 10 8 14 15 16 17 17 17 17 18 17 17 17 17 17 17 17 17 17 16 16 15 15 15 14 14 14 14 14 15 18 21 23 25 27
6 7 10 11 12 13 13 12 12 10 9 10 15 15 15 16 16 17 17 17 17 17 18 18 18 18 19 19 18 17 16 15 15 14 13 11 10 10 11 13 16 19 20 23
5 7 9 10 11 13 13 12 12 11 11 8 13 15 16 17 17 17 17 18 18 18 19 19 20 20 21 21 20 19 18 16 16 15 14 12 10 9 9 9 10 13 16 19
6 7 9 10 12 14 14 13 13 12 12 11 12 14 15 16 16 17 17 18 18 18 19 20 20 21 22 22 22 21 19 17 16 15 14 14 12 10 8 7 6 7 10 13
7 9 10 11 13 14 14 14 14 14 13 12 13 13 14 15 16 16 17 18 18 19 19 20 21 22 22 22 23 22 22 20 18 16 15 14 14 12 9 7 6 5 5 7
8 9 11 12 13 14 14 14 14 14 14 14 14 14 14 15 16 17 17 18 18 19 20 21 21 22 22 22 22 23 23 23 21 20 18 17 16 15 12 10 8 7 5 5
9 9 11 13 14 14 14 14 14 14 15 15 14 14 15 15 16 17 17 18 18 19 19 20 21 21 22 22 23 23 23 23 23 22 20 19 18 17 15 13 11 10 8 6
9 9 11 12 13 14 14 14 14 14 14 14 14 14 15 16 17 17 17 18 19 19 20 20 21 21 21 22 23 23 23 23 23 22 21 20 19 18 17 16 14 12 10 9
8 8 10 10 11 12 13 13 14 13 13 14 14 14 15 16 16 17 18 18 19 20 20 20 20 21 21 21 22 23 23 23 23 23 22 21 21 20 19 18 16 14 13 11
6 7 8 9 10 11 11 12 13 13 13 13 13 14 14 15 16 16 18 18 19 19 20 20 20 20 21 21 22 23 23 23 23 23 22 22 21 21 20 19 18 16 15 13
5 6 7 8 9 9 11 11 12 12 12 12 13 13 14 14 15 16 17 18 19 19 20 20 20 20 20 21 22 22 23 23 23 22 22 22 22 22 21 21 20 18 17 17
5 6 6 7 8 8 9 10 10 11 12 12 12 13 13 14 14 15 16 17 18 18 19 19 19 19 20 20 21 22 23 23 23 23 22 22 22 22 22 22 21 20 19 19
6 6 6 6 7 7 8 9 9 10 11 12 12 12 13 13 14 15 15 16 17 18 18 18 18 18 19 20 20 21 22 23 24 24 23 23 23 23 23 23 23 22 21 21
8 8 8 7 7 7 8 8 8 9 10 11 11 12 12 13 14 14 15 16 17 17 17 17 17 18 18 18 19 20 21 22 23 24 24 23 23 23 23 24 24 23 23 22
11 10 10 10 9 8 8 8 8 9 9 10 10 11 12 12 13 14 15 15 16 16 16 16 16 17 17 17 18 19 20 21 22 23 24 24 24 24 24 24 25 25 24 24
13 13 12 12 11 11 11 10 10 10 9 10 10 10 10 11 12 13 13 14 15 15 15 15 15 16 16 16 17 18 19 20 21 22 23 24 24 24 24 25 25 25 25 25
15 15 15 15 15 14 13 13 13 12 11 10 10 10 10 10 11 12 12 12 13 14 15 15 15 15 15 15 16 17 18 18 19 20 22 23 23 24 24 25 25 25 25 26
18 18 18 18 18 17 16 16 16 15 14 13 12 11 11 11 11 11 11 12 12 13 14 14 14 14 14 15 15 16 16 17 18 19 20 21 22 24 24 24 25 25 25 26
21 21 21 21 21 20 19 18 18 18 17 16 15 14 13 13 12 11 11 11 12 12 13 13 13 13 14 14 14 15 15 15 16 17 18 20 21 22 23 24 24 25 25 25
Wind_Direction
271 277 285 292 295 295 293 291 288 291 300 300 300 301 301 299 297 296 294 293 291 290 289 287 286 284 282 281 280 279 277 275 272 270 268 267 266 266 266 266 266 264 261 260
274 279 289 292 296 296 296 296 295 297 304 304 304 305 305 303 301 300 298 296 296 294 293 292 290 288 286 284 284 282 280 278 274 271 269 268 267 265 264 264 264 263 261 259
277 291 295 296 299 301 302 305 306 306 310 309 309 310 312 312 309 307 305 303 300 298 297 296 294 292 290 288 287 286 283 280 277 274 270 268 267 267 265 263 262 262 261 258
282 292 296 300 303 307 309 313 313 313 315 315 320 319 323 324 320 318 315 313 311 308 305 303 300 298 296 294 293 292 289 284 279 276 273 269 267 266 264 261 260 260 259 258
291 295 300 305 310 312 315 317 317 316 318 321 327 326 327 330 326 324 323 323 322 321 318 314 311 308 306 304 303 302 298 292 287 282 278 274 270 266 263 260 257 256 256 256
299 305 311 315 318 319 320 321 321 321 331 337 337 330 329 334 331 331 332 332 334 336 334 332 327 324 320 317 315 314 308 303 297 292 286 281 275 269 263 258 255 253 252 252
301 314 323 328 329 330 330 333 337 341 340 332 336 334 336 338 339 341 345 348 351 353 354 352 348 344 340 336 333 329 322 317 311 304 296 288 280 272 264 258 254 251 248 247
334 346 345 344 341 342 343 345 348 346 324 322 342 346 348 348 349 353 358 359 359 1 2 2 2 0 358 357 355 351 346 338 332 325 315 302 289 279 269 260 254 250 246 243
347 358 355 354 354 354 352 355 357 355 354 340 348 1 1 360 2 5 7 8 11 14 15 16 16 15 13 10 8 5 1 357 352 347 341 331 313 297 285 270 257 251 245 242
14 14 13 11 9 8 7 7 8 11 15 5 351 4 7 10 14 16 17 19 22 22 22 22 20 19 18 16 15 12 9 5 3 1 359 353 349 332 311 293 273 257 249 245
42 35 35 28 22 20 20 20 21 24 27 19 11 15 15 17 18 19 20 22 24 24 24 23 23 21 21 20 18 16 16 15 13 10 9 7 3 357 349 337 314 278 255 249
56 43 42 37 30 27 28 29 29 29 31 30 28 27 22 20 20 20 21 24 26 26 26 25 24 24 24 24 25 26 26 25 23 22 20 18 15 12 10 1 348 328 293 263
57 48 47 48 40 34 35 36 35 34 33 35 32 30 26 25 23 22 23 25 24 24 23 23 24 25 25 26 26 28 28 29 29 29 28 28 27 27 25 21 16 4 344 312
55 49 45 44 41 39 39 39 37 35 34 37 36 33 30 29 25 24 24 24 22 22 21 21 22 23 24 26 27 27 28 29 29 31 32 32 31 30 30 28 24 18 11 355
52 48 47 46 42 40 40 39 37 35 35 35 34 32 30 28 25 24 24 23 23 23 23 23 23 24 26 27 28 28 28 29 29 30 31 31 31 29 29 27 24 21 17 10
48 44 44 45 43 40 39 38 36 35 33 32 31 31 28 26 25 25 25 25 24 23 23 23 23 24 26 27 27 28 28 29 29 29 29 29 29 28 27 25 23 19 17 12
36 35 36 39 40 37 36 32 31 30 30 29 28 27 25 25 24 24 23 22 21 21 21 21 22 24 25 26 26 26 26 25 26 26 27 26 26 26 24 23 20 18 15 9
14 19 23 25 29 32 29 27 25 24 24 23 22 20 20 20 19 18 17 18 19 20 20 20 21 22 23 24 25 25 24 23 24 24 25 24 23 23 22 21 19 17 14 9
346 351 358 6 14 22 21 18 17 17 18 16 15 16 15 14 14 12 12 13 14 15 17 18 19 21 22 23 24 24 24 24 23 23 23 22 21 20 19 18 17 15 13 10
323 325 332 340 351 4 10 9 10 12 14 13 12 11 11 11 11 9 9 10 10 11 13 15 17 19 20 21 22 23 23 23 23 23 22 21 20 18 17 16 16 14 13 10
303 307 310 314 322 337 348 353 358 2 5 5 6 6 6 6 6 6 6 6 7 8 10 12 14 16 18 19 20 21 21 22 22 22 22 21 19 18 18 17 17 16 14 12
290 294 297 299 303 311 317 326 335 345 351 354 355 357 360 1 3 4 4 5 5 7 8 9 10 12 14 16 17 18 19 21 22 22 22 21 20 19 18 18 18 17 16 15
281 285 289 292 295 296 298 303 310 317 327 335 341 345 347 351 355 357 359 1 3 4 5 7 8 9 11 13 14 15 17 18 20 21 21 21 20 20 19 19 19 19 19 18
275 277 280 282 285 287 288 290 293 297 304 311 319 328 335 339 344 348 350 352 354 357 359 1 3 5 7 9 11 13 14 16 17 18 19 21 21 21 21 21 21 21 21 22
272 271 272 275 276 279 282 285 286 287 289 293 298 305 312 321 328 333 338 341 343 346 350 353 356 358 0 3 5 7 10 13 15 16 17 18 20 21 22 22 23 23 25 26
269 269 268 269 271 273 275 277 278 280 282 283 285 289 294 300 307 314 322 328 331 335 339 343 347 349 353 356 358 1 4 7 10 13 15 17 19 20 22 23 24 25 27 29
Height
5902 5903 5901 5900 5898 5897 5895 5892 5889 5882 5880 5877 5872 5868 5866 5863 5860 5856 5853 5850 5847 5844 5841 5839 5837 5835 5833 5831 5829 5828 5827 5827 5826 5826 5826 5827 5828 5829 5831 5834 5836 5839 5842 5844
5899 5899 5899 5896 5894 5893 5890 5887 5884 5878 5875 5871 5867 5863 5860 5857 5853 5851 5847 5843 5840 5837 5834 5831 5829 5826 5824 5822 5820 5817 5816 5815 5814 5814 5814 5815 5816 5817 5820 5822 5825 5828 5832 5835
5896 5896 5895 5893 5890 5888 5885 5882 5879 5874 5870 5866 5863 5858 5855 5852 5849 5845 5842 5838 5834 5831 5827 5824 5821 5818 5816 5813 5811 5808 5806 5804 5803 5803 5803 5803 5804 5805 5808 5810 5813 5817 5820 5824
5894 5893 5891 5889 5887 5884 5881 5878 5875 5871 5867 5862 5859 5855 5851 5848 5844 5841 5837 5833 5829 5825 5821 5818 5815 5812 5809 5806 5803 5800 5798 5796 5794 5793 5792 5792 5793 5794 5796 5798 5801 5805 5809 5813
5891 5891 5889 5886 5884 5881 5878 5874 5871 5867 5864 5860 5856 5853 5848 5845 5841 5837 5833 5829 5825 5821 5817 5814 5810 5807 5804 5801 5797 5794 5791 5788 5786 5784 5783 5783 5783 5784 5785 5787 5790 5794 5798 5802
5889 5888 5886 5884 5881 5878 5875 5872 5868 5865 5861 5858 5856 5853 5847 5843 5839 5835 5831 5826 5822 5818 5814 5810 5807 5803 5800 5796 5793 5789 5786 5783 5780 5778 5777 5775 5775 5775 5776 5778 5781 5784 5788 5792
5888 5886 5884 5882 5879 5876 5873 5870 5866 5862 5859 5857 5855 5852 5848 5843 5838 5834 5830 5825 5821 5817 5813 5809 5805 5802 5798 5794 5790 5786 5783 5779 5776 5774 5772 5770 5769 5769 5769 5771 5773 5776 5779 5782
5886 5885 5883 5881 5878 5875 5871 5869 5866 5863 5860 5857 5854 5851 5848 5843 5838 5834 5829 5825 5821 5817 5814 5809 5805 5801 5797 5793 5789 5785 5781 5777 5774 5771 5769 5767 5765 5765 5765 5765 5767 5769 5771 5775
5886 5884 5882 5880 5877 5874 5871 5867 5865 5862 5859 5857 5853 5851 5847 5843 5839 5834 5830 5826 5822 5818 5815 5810 5806 5802 5797 5793 5789 5785 5781 5777 5774 5770 5767 5765 5763 5762 5761 5761 5762 5764 5766 5769
5886 5884 5882 5880 5878 5874 5871 5868 5865 5862 5859 5857 5854 5851 5847 5843 5839 5836 5832 5828 5824 5820 5816 5812 5808 5803 5799 5794 5790 5786 5782 5778 5774 5771 5768 5765 5763 5761 5760 5759 5759 5760 5762 5764
5886 5885 5883 5880 5877 5874 5871 5868 5865 5862 5859 5857 5854 5854 5849 5845 5842 5838 5835 5831 5827 5823 5819 5815 5810 5806 5801 5797 5792 5788 5783 5779 5776 5772 5769 5766 5763 5761 5759 5758 5758 5758 5759 5760
5886 5885 5883 5881 5878 5875 5872 5869 5866 5864 5861 5858 5856 5856 5850 5847 5844 5841 5837 5833 5829 5825 5822 5817 5813 5809 5804 5800 5795 5790 5786 5782 5778 5774 5771 5767 5764 5762 5760 5759 5758 5758 5757 5757
5887 5886 5884 5881 5881 5877 5874 5870 5868 5865 5863 5860 5858 5858 5852 5849 5846 5843 5839 5836 5832 5828 5824 5820 5816 5812 5807 5803 5798 5794 5789 5785 5781 5777 5773 5770 5767 5764 5762 5760 5759 5758 5757 5757
5887 5886 5885 5883 5880 5877 5875 5872 5870 5867 5865 5862 5860 5858 5855 5852 5849 5845 5842 5838 5835 5831 5827 5823 5819 5815 5810 5806 5802 5797 5793 5789 5784 5780 5777 5773 5770 5767 5765 5762 5761 5759 5758 5757
5888 5887 5885 5883 5881 5879 5877 5874 5872 5869 5867 5865 5862 5860 5857 5854 5851 5848 5845 5841 5838 5834 5830 5826 5822 5818 5814 5810 5805 5801 5797 5793 5788 5784 5780 5777 5773 5770 5767 5765 5763 5760 5759 5757
5889 5888 5886 5885 5882 5881 5879 5876 5874 5872 5869 5867 5865 5863 5860 5857 5854 5851 5847 5844 5840 5836 5833 5829 5825 5821 5817 5813 5809 5805 5801 5797 5792 5788 5784 5781 5777 5774 5770 5767 5765 5762 5760 5758
5890 5889 5887 5886 5884 5882 5881 5878 5876 5874 5871 5869 5867 5865 5862 5859 5856 5853 5850 5846 5843 5839 5835 5832 5828 5824 5820 5816 5812 5808 5804 5800 5796 5792 5788 5784 5780 5777 5773 5770 5767 5764 5761 5759
5890 5889 5888 5886 5885 5883 5884 5879 5878 5875 5873 5871 5868 5866 5864 5861 5858 5855 5852 5849 5845 5842 5838 5834 5831 5827 5823 5819 5815 5811 5808 5803 5799 5795 5791 5787 5783 5780 5776 5772 5769 5765 5762 5759
5890 5889 5888 5887 5885 5884 5883 5881 5878 5877 5875 5872 5870 5867 5865 5862 5860 5857 5854 5851 5848 5844 5841 5837 5834 5830 5826 5822 5819 5815 5811 5807 5803 5798 5794 5790 5786 5782 5778 5774 5770 5767 5763 5759
5890 5889 5888 5887 5886 5885 5884 5881 5879 5878 5876 5873 5871 5869 5866 5864 5862 5860 5856 5853 5849 5846 5843 5839 5836 5832 5829 5825 5821 5818 5814 5810 5806 5801 5797 5793 5789 5785 5781 5776 5772 5768 5764 5760
5889 5888 5887 5886 5885 5884 5883 5881 5880 5879 5878 5874 5871 5869 5867 5865 5863 5860 5857 5854 5851 5848 5845 5842 5838 5835 5832 5828 5824 5821 5817 5813 5809 5805 5800 5796 5792 5787 5783 5779 5774 5769 5765 5760
5887 5886 5886 5885 5884 5885 5882 5881 5880 5879 5876 5874 5872 5870 5868 5865 5863 5861 5858 5855 5852 5849 5846 5843 5840 5837 5834 5830 5827 5824 5820 5816 5812 5808 5803 5799 5795 5790 5786 5781 5776 5771 5766 5762
5884 5884 5883 5883 5884 5882 5880 5879 5878 5877 5875 5873 5871 5870 5868 5866 5863 5861 5859 5856 5853 5851 5848 5845 5842 5839 5836 5833 5829 5826 5822 5819 5815 5811 5807 5802 5798 5793 5788 5784 5779 5774 5769 5763
5880 5880 5880 5879 5879 5879 5878 5877 5876 5875 5874 5872 5871 5869 5867 5865 5863 5861 5859 5857 5854 5852 5849 5846 5843 5840 5837 5834 5831 5828 5824 5821 5817 5814 5810 5805 5801 5796 5791 5786 5782 5777 5772 5766
5876 5875 5875 5875 5875 5875 5874 5874 5873 5872 5871 5870 5869 5867 5866 5864 5862 5861 5859 5856 5854 5852 5849 5847 5844 5841 5839 5836 5833 5830 5826 5823 5820 5816 5812 5808 5804 5799 5795 5790 5785 5780 5775 5770
5870 5870 5870 5870 5870 5870 5870 5869 5869 5868 5867 5867 5866 5865 5863 5862 5861 5859 5857 5856 5854 5851 5849 5847 5844 5842 5839 5836 5834 5831 5828 5825 5822 5818 5815 5811 5807 5803 5798 5793 5789 5784 5779 5775